GFSGL_prec_cloud_159.txt.gz
Cloud_Cover
100 100 100 100 100 100 100 100 100 70 27 61 100 100 52 36 56 38 31 90 75 53 65 2 0 0 6 0 0 1 6 13 76 3 0 0 0 0 0 0 0 0 0
92 100 100 39 100 100 100 100 100 100 100 100 44 100 100 98 66 4 86 17 6 26 0 0 0 0 0 0 0 0 0 0 49 94 0 0 0 0 0 0 0 0 0
82 86 93 100 55 71 100 100 94 100 92 100 100 100 91 93 5 4 10 0 0 0 0 0 0 0 0 0 0 1 4 20 44 91 98 28 7 1 0 1 0 0 0
44 79 56 99 100 49 21 79 100 36 94 100 90 94 71 4 1 0 1 0 0 0 0 0 0 0 0 0 0 6 42 83 99 100 100 100 53 0 8 10 34 0 0
51 9 18 1 6 77 100 84 78 98 7 53 28 0 0 0 0 0 0 4 18 8 0 0 0 0 0 0 11 18 57 100 100 100 100 100 100 30 18 0 20 1 0
6 3 0 3 5 5 58 98 64 5 0 0 0 0 0 0 0 0 0 14 9 4 1 0 0 0 9 5 2 5 22 92 100 100 100 100 91 27 0 0 6 35 1
0 0 0 0 0 0 0 0 0 0 0 0 0 0 0 0 0 0 0 2 0 0 0 8 49 66 63 60 48 55 58 40 79 89 100 89 49 11 4 0 7 21 8
2 4 0 0 0 0 0 0 0 0 0 0 0 0 0 0 0 22 2 0 5 16 27 26 94 96 90 95 100 96 100 100 100 100 99 82 64 50 12 4 5 32 50
5 5 3 0 0 0 0 0 0 0 0 0 0 6 20 9 33 2 15 14 68 98 100 100 100 100 100 100 100 95 67 99 100 96 89 73 7 5 5 10 39 93 97
0 0 0 0 0 0 0 0 0 3 15 26 14 0 4 58 38 16 35 100 100 100 100 100 100 100 100 100 100 100 100 25 10 48 76 6 72 100 55 48 58 96 100
0 0 2 4 4 5 5 2 0 0 0 0 0 0 1 2 6 90 100 100 100 100 100 100 100 100 100 100 100 100 100 100 100 100 100 100 100 92 100 100 100 100 100
4 5 8 5 5 2 4 0 0 1 1 1 0 4 8 0 48 100 100 100 98 100 100 100 100 100 100 100 100 100 100 100 100 100 100 100 100 100 99 100 100 100 100
12 5 5 4 5 0 0 3 33 96 59 49 99 14 22 59 100 100 100 100 100 100 100 100 100 100 100 100 100 100 100 100 100 100 100 100 100 100 100 100 100 100 100
5 2 3 0 1 0 0 0 99 100 100 100 100 61 100 94 100 100 100 100 100 100 100 100 100 100 100 100 100 100 100 100 100 100 100 100 100 100 100 100 100 100 100
0 0 2 27 30 17 2 7 46 100 99 100 100 99 96 100 95 100 100 100 100 100 100 100 100 100 100 100 100 100 100 100 100 100 100 100 100 100 100 100 100 100 100
0 0 0 0 0 1 10 98 46 71 94 81 77 56 44 100 100 100 100 100 100 100 100 100 100 100 100 100 100 100 100 100 100 100 100 100 100 100 100 100 100 100 100
0 0 0 0 0 0 0 0 4 0 0 1 0 0 5 55 99 100 100 100 100 100 100 100 100 100 100 100 100 100 100 100 100 100 100 100 100 100 100 100 100 100 100
5 0 0 0 0 0 0 0 0 9 18 0 0 0 4 6 97 99 100 100 100 100 100 100 100 100 100 100 100 100 100 100 100 100 100 100 100 100 100 100 100 100 100
2 0 0 0 0 0 0 0 0 0 0 3 4 2 5 5 74 100 100 100 100 100 100 100 100 100 100 100 100 100 100 100 100 100 100 100 100 100 100 100 100 100 100
0 1 3 0 0 1 5 0 0 0 0 1 0 0 6 4 55 100 100 100 100 100 100 100 100 100 100 100 100 97 100 100 100 100 100 100 100 100 100 100 100 100 100
2 5 4 0 0 5 5 0 0 0 0 0 1 1 5 14 100 100 100 100 100 100 100 100 100 100 98 99 100 68 100 100 100 100 100 100 100 100 100 100 100 100 100
5 4 0 5 5 1 0 0 0 0 0 0 5 28 92 46 72 100 100 100 98 100 100 100 100 100 100 100 94 70 73 88 100 100 100 100 100 100 100 100 100 100 100
0 0 5 5 0 0 0 2 0 0 0 0 8 78 12 100 40 35 97 100 100 100 100 100 100 100 99 100 100 96 100 100 100 100 100 100 100 100 100 100 100 100 100
5 4 4 0 3 5 0 0 0 0 0 2 5 95 71 100 60 98 98 100 100 100 100 100 100 100 100 100 100 94 39 69 92 100 100 100 100 100 100 100 100 100 100
5 4 2 5 4 0 0 0 0 0 0 0 1 11 85 99 100 100 100 97 100 100 100 100 100 100 100 100 99 93 69 73 89 97 100 100 100 100 100 100 100 100 100
11 5 5 1 0 0 0 0 0 0 0 0 0 0 2 73 86 100 63 77 78 100 100 100 100 100 100 100 100 100 100 100 100 81 37 80 100 100 100 100 100 100 100

GFSGL_prec_cloud_165.txt.gz
Cloud_Cover
0 0 0 4 1 21 1 24 10 5 0 0 5 1 0 0 23 24 11 1 97 93 5 2 3 0 0 0 0 0 15 50 58 13 65 65 10 21 35 25 44 14 0
0 0 0 0 11 52 30 20 0 0 0 4 8 8 24 41 34 46 25 0 1 25 0 0 0 0 6 12 9 27 4 29 50 100 85 71 93 12 60 75 28 52 5
0 0 1 40 13 3 0 0 2 34 20 18 26 27 7 19 27 9 0 0 0 0 0 1 11 34 23 6 21 9 5 53 78 45 99 88 97 100 22 34 100 93 48
7 28 39 24 1 0 0 6 20 20 3 0 0 0 0 0 0 0 0 4 14 19 25 16 23 33 34 11 17 59 49 100 100 100 100 76 60 74 96 58 84 60 75
7 3 22 29 32 29 6 0 3 4 0 0 0 0 0 0 0 9 26 51 64 38 19 8 16 28 44 69 95 100 100 100 96 82 100 100 58 100 94 54 91 73 14
0 22 42 22 5 2 5 5 3 0 0 0 0 2 5 8 9 10 18 68 44 9 5 2 5 5 20 92 100 100 100 100 100 100 100 100 100 70 82 100 55 80 18
2 12 5 5 5 10 19 1 0 0 0 5 5 6 34 92 0 7 20 6 19 12 9 22 24 21 81 100 100 100 92 100 100 90 100 100 94 62 96 61 64 55 14
5 5 5 5 5 2 0 0 2 5 5 18 35 45 45 69 0 0 0 27 16 8 13 46 50 70 100 100 100 100 100 100 100 100 100 100 94 76 100 35 47 47 14
5 5 5 2 4 0 0 2 11 1 3 30 72 51 2 26 0 0 0 0 12 14 20 39 84 100 100 100 100 100 100 100 100 100 100 98 99 95 100 100 100 73 18
5 5 5 1 5 2 5 5 21 2 21 0 20 17 1 0 0 0 6 58 95 39 5 24 100 100 100 95 100 100 100 100 100 100 100 98 100 100 100 100 100 100 100
70 8 5 1 0 59 4 7 5 0 0 0 0 0 0 33 17 0 61 79 100 100 100 100 100 96 71 77 100 100 100 100 100 100 100 99 100 100 100 100 100 100 100
5 17 4 0 5 4 2 3 12 13 1 0 0 0 6 18 8 4 0 61 100 100 100 100 100 100 92 100 100 100 100 100 98 100 100 100 100 100 100 100 100 100 100
49 5 5 5 0 0 0 1 4 19 2 9 2 0 0 9 48 48 38 90 100 100 100 99 100 90 83 100 100 100 100 98 100 100 100 100 100 100 100 100 100 100 100
54 1 5 4 0 0 0 0 1 5 15 2 0 0 0 12 40 70 77 97 99 92 99 69 100 91 100 100 100 100 100 100 100 100 100 89 100 100 100 100 100 100 100
5 22 96 4 0 6 11 0 5 100 54 0 0 0 2 3 49 42 93 100 100 97 100 100 100 100 100 100 100 100 100 100 100 100 100 100 100 100 100 100 100 100 100
6 96 5 5 4 0 1 5 21 76 0 52 6 12 1 7 84 92 94 100 100 100 61 100 100 100 100 100 100 100 92 79 100 100 100 100 96 100 100 100 100 100 100
65 38 35 5 4 0 0 0 0 0 0 0 0 0 0 70 0 82 89 93 68 83 73 100 100 100 100 100 100 96 81 100 100 100 100 100 100 100 100 100 100 100 100
100 83 42 4 0 0 0 0 0 5 0 0 0 0 0 0 0 2 1 100 100 99 27 92 100 100 100 100 91 96 100 98 99 100 100 100 100 100 100 100 100 100 100
100 100 84 2 0 0 0 0 5 1 0 1 0 0 0 0 1 26 5 62 66 42 6 83 100 100 100 100 100 100 99 100 100 100 100 100 100 100 100 100 100 100 100
100 90 3 0 0 3 3 0 1 0 0 0 2 0 0 2 1 0 16 43 62 2 40 70 23 100 100 100 100 88 100 100 100 100 100 100 100 100 100 100 100 100 100
89 5 2 5 12 9 18 5 5 0 67 2 5 9 47 1 0 0 1 3 1 5 23 61 87 100 100 100 100 100 100 100 100 90 100 100 100 100 100 100 100 100 100
21 16 34 8 52 4 5 5 4 11 82 7 5 4 0 0 0 0 0 38 48 32 11 96 100 100 100 100 100 100 98 100 98 74 96 100 100 100 100 100 100 100 100
100 57 84 99 27 0 0 5 5 89 48 100 12 5 0 0 0 0 0 0 19 65 12 100 100 100 100 100 100 100 100 100 100 99 77 60 100 100 100 100 100 100 100
100 100 100 100 1 0 16 11 37 87 91 98 19 0 0 0 0 0 0 0 0 0 4 8 22 26 100 100 100 100 88 88 99 57 84 26 36 52 100 100 100 100 100
97 95 58 62 4 5 93 31 100 100 80 81 38 6 0 0 0 0 0 0 0 0 0 5 5 5 10 29 100 100 100 72 86 73 12 31 5 5 5 74 100 100 100
40 6 49 10 5 42 4 88 100 97 6 5 55 4 0 0 0 0 0 0 0 0 0 5 5 5 5 5 5 11 37 44 20 58 12 3 2 4 5 5 30 100 100

GFSGL_prec_cloud_168.txt.gz
Cloud_Cover
0 0 0 0 1 16 27 41 86 100 100 71 25 30 40 90 100 94 64 28 62 25 22 7 1 0 0 0 0 0 0 0 0 0 2 57 26 9 4 0 20 86 26
0 0 0 5 23 15 42 93 100 98 62 53 46 76 100 78 90 60 33 49 12 0 0 0 5 1 13 10 0 0 0 7 14 0 59 5 28 20 9 25 39 91 100
0 0 5 30 22 44 50 88 66 42 42 76 80 83 48 24 2 0 0 1 1 4 20 53 96 47 49 9 65 25 8 2 16 19 18 96 77 19 6 24 5 73 84
0 2 32 60 80 89 67 39 53 37 21 7 0 0 0 0 0 14 0 4 20 26 34 29 29 100 99 36 44 75 86 99 71 66 82 90 15 22 54 10 2 17 76
2 36 99 83 60 48 43 37 16 0 0 0 0 0 0 0 9 2 4 7 41 28 8 41 69 55 0 8 91 100 100 100 96 81 90 42 22 58 90 43 39 12 67
47 49 44 41 38 14 3 5 0 1 0 2 0 0 0 29 0 0 10 0 2 24 93 100 100 100 73 8 100 53 76 94 94 98 74 92 93 32 68 100 100 86 100
9 26 18 1 5 5 5 5 5 3 10 48 24 20 97 100 0 0 0 6 70 56 100 100 100 54 51 100 84 70 100 100 99 79 100 95 100 100 100 87 66 71 96
4 3 5 5 5 5 5 9 5 2 20 0 49 95 28 100 10 4 0 23 90 91 100 100 100 100 100 96 98 35 41 99 99 100 99 100 100 98 100 100 100 100 100
5 13 47 17 8 11 35 3 0 0 0 5 14 100 98 100 95 2 0 0 33 41 58 100 100 100 97 80 79 86 100 100 100 100 100 100 100 98 97 100 100 100 100
100 94 39 8 5 5 1 0 4 0 0 0 0 11 93 100 89 0 0 0 30 39 87 98 100 100 92 100 83 100 99 100 100 100 100 100 100 100 100 100 100 100 100
93 40 5 22 5 0 1 5 4 0 0 0 0 0 40 59 80 0 0 94 98 100 100 100 77 5 32 27 50 93 100 100 100 100 100 100 100 100 100 100 99 100 100
71 98 95 61 5 2 1 1 2 1 0 0 0 0 0 15 34 4 5 86 70 91 100 99 37 26 5 20 95 100 100 100 100 100 100 100 100 100 100 100 100 100 100
85 86 100 94 95 0 4 33 5 4 0 0 0 0 0 0 35 6 43 18 12 60 58 56 31 33 98 85 100 100 100 100 100 100 100 100 100 100 100 100 100 100 100
88 91 98 96 50 0 5 20 5 100 33 0 0 0 0 2 0 11 72 80 76 64 42 77 56 90 100 100 100 100 100 100 100 100 100 100 100 100 100 100 100 100 100
52 49 84 78 15 8 6 49 92 100 23 0 0 0 0 1 4 18 65 96 45 3 37 45 54 100 100 100 100 100 100 100 100 100 100 100 100 96 100 100 100 100 100
5 28 95 100 97 44 100 100 100 97 9 1 6 20 1 18 8 2 0 7 19 13 2 30 77 100 100 100 100 100 100 100 100 100 100 100 100 100 100 100 100 98 100
5 46 38 88 100 100 100 100 67 12 0 0 3 0 3 87 30 1 0 5 0 17 16 100 100 98 100 100 100 100 100 100 100 100 86 100 100 100 100 100 100 100 100
16 78 99 100 100 100 100 97 5 0 0 0 0 0 5 3 51 6 0 4 0 0 0 49 99 80 96 100 100 91 100 100 100 97 100 100 100 100 100 100 100 100 100
94 68 73 41 97 84 23 5 5 0 0 0 0 11 0 5 99 78 0 0 0 0 1 0 0 7 88 100 68 98 100 100 100 82 100 100 100 100 100 100 100 100 100
100 96 5 5 5 65 9 5 4 0 0 0 0 4 5 5 96 15 0 0 0 0 0 0 94 54 100 100 98 77 100 86 97 68 56 100 100 100 100 100 100 100 100
100 97 8 77 100 43 91 45 5 0 0 0 0 8 5 19 76 5 0 0 0 0 0 1 100 54 100 100 100 100 100 99 100 96 84 100 100 100 100 100 100 100 100
5 36 100 100 100 98 100 100 5 4 5 16 21 16 5 45 99 2 0 0 0 0 0 0 0 36 84 100 100 100 41 99 100 50 14 99 62 100 100 100 100 100 100
14 90 100 96 100 100 100 90 5 5 48 100 100 10 5 100 56 2 0 0 0 0 0 0 0 0 5 65 100 99 100 60 11 6 5 14 48 19 95 100 100 100 100
99 95 98 100 22 75 52 6 40 58 100 99 5 8 71 95 10 3 0 0 0 0 0 0 4 5 5 5 5 5 29 96 30 5 6 11 5 5 5 36 97 100 100
100 100 100 100 53 11 26 89 100 100 100 100 49 30 100 77 6 5 0 0 0 0 0 0 2 5 5 5 5 5 2 1 22 43 4 2 5 5 5 5 36 85 100
100 100 100 100 100 100 100 100 100 100 100 100 56 52 88 24 9 5 0 0 0 0 0 0 5 5 5 5 5 5 1 0 6 38 8 4 5 4 0 5 5 5 7

GFSGL_prec_cloud_171.txt.gz
Cloud_Cover
0 0 0 18 16 42 52 61 32 52 100 100 88 100 76 71 52 48 84 10 68 52 13 1 5 0 2 18 0 1 35 57 7 0 0 2 11 5 0 0 0 29 59
0 12 20 24 11 54 100 100 57 41 78 86 100 100 100 19 73 16 22 2 0 0 0 0 4 61 99 100 4 4 0 0 22 5 40 59 0 1 0 0 0 6 33
2 24 22 33 72 100 100 100 46 98 100 99 99 59 10 4 8 0 10 2 0 0 1 1 97 96 18 0 0 1 8 5 13 6 7 4 6 1 6 0 0 22 16
12 9 59 66 100 100 100 100 100 100 74 14 1 2 64 4 2 13 3 0 0 0 0 0 0 44 2 0 0 1 57 72 88 96 34 5 11 0 44 4 2 11 5
17 78 99 100 100 100 100 100 60 8 1 0 3 19 6 21 0 0 0 0 0 0 0 0 17 31 87 11 86 19 34 33 50 60 74 80 48 1 4 5 43 58 47
75 99 100 100 99 91 30 5 5 4 0 0 3 12 0 2 2 5 0 1 1 0 21 55 100 100 85 30 27 20 66 100 100 40 43 61 38 24 61 100 100 100 100
99 100 79 31 55 8 5 5 5 0 6 5 19 28 6 4 5 0 0 0 14 99 94 100 99 100 100 100 34 7 68 61 75 99 100 100 100 100 100 100 100 100 100
60 42 19 5 37 93 71 44 2 5 5 5 28 0 14 3 30 0 0 0 94 14 68 69 100 77 100 95 87 71 100 100 99 100 100 100 100 100 100 100 100 100 100
72 99 65 50 98 31 96 100 43 11 59 5 1 7 63 99 82 0 0 0 3 5 41 100 74 100 34 80 76 100 95 47 100 100 100 100 100 100 100 100 100 100 100
96 86 23 77 8 100 100 99 100 100 79 0 0 6 72 36 51 0 1 1 8 11 35 93 100 26 5 12 59 99 100 100 100 100 100 100 100 100 99 100 100 100 100
100 68 20 9 94 100 100 71 100 84 5 0 3 11 95 82 0 0 0 3 20 75 100 80 57 5 5 8 17 77 99 100 100 100 100 100 100 100 100 100 100 100 100
42 5 21 100 87 36 4 5 100 100 4 6 17 99 100 53 0 7 0 2 2 83 100 72 7 5 5 5 18 96 100 100 100 100 100 100 100 100 100 100 100 100 100
5 5 78 64 62 5 0 21 95 5 27 23 100 100 100 0 0 0 0 5 74 33 52 50 35 92 16 98 100 100 100 100 100 100 100 100 100 100 100 100 100 100 100
2 99 88 0 1 5 33 34 1 5 10 100 100 100 11 0 0 0 0 11 13 4 0 87 14 26 100 100 100 100 100 100 100 100 100 100 100 100 100 100 100 100 100
40 13 0 0 2 16 47 38 29 93 100 64 0 0 0 0 6 16 28 2 2 4 12 2 5 5 76 95 78 70 100 100 100 100 100 100 100 100 100 100 100 100 100
10 0 0 1 55 34 38 100 100 30 0 0 3 0 4 11 4 3 6 2 5 4 0 1 0 39 4 64 99 45 100 98 100 100 100 100 100 100 100 100 100 100 100
0 5 4 5 92 84 12 1 5 2 0 0 4 3 5 82 4 22 67 5 1 30 0 0 0 0 4 96 100 46 94 100 100 100 100 100 100 100 100 100 100 100 100
5 5 32 10 5 6 90 100 94 6 73 84 4 5 9 5 4 95 51 16 2 3 5 0 0 0 21 84 100 43 99 100 100 100 100 100 100 100 100 100 100 100 100
100 100 99 100 99 100 100 16 5 5 5 5 5 32 22 20 25 100 100 44 9 5 5 0 0 0 24 100 100 100 97 100 100 91 100 100 100 100 100 100 100 100 100
100 100 84 100 100 87 5 5 19 84 71 74 91 13 14 6 100 100 33 94 40 5 1 0 0 0 5 33 89 100 100 100 100 100 98 100 51 100 100 100 100 100 100
100 100 100 100 100 100 46 6 47 100 100 100 91 91 100 100 100 98 99 95 90 9 5 0 0 0 0 1 5 96 100 98 100 100 100 98 10 29 100 100 100 100 100
100 100 100 100 24 56 34 99 100 100 100 98 100 100 100 100 100 41 8 97 67 9 5 2 0 0 0 1 4 5 79 100 100 91 70 48 8 5 98 72 100 100 100
100 100 100 100 100 100 100 100 100 100 100 100 99 100 100 100 83 31 82 20 12 5 0 0 0 1 4 5 4 5 2 18 29 5 5 11 3 5 5 5 58 100 100
100 100 100 100 100 100 100 100 100 100 100 100 100 100 100 82 100 95 14 95 100 7 0 0 3 5 5 5 4 3 0 0 0 0 0 0 3 5 0 5 5 65 99
100 100 100 100 100 100 100 100 100 100 100 100 100 100 97 18 35 25 93 55 14 8 0 0 2 4 4 4 2 0 0 0 18 43 0 2 5 5 1 5 5 5 56
100 100 100 100 100 100 100 100 100 97 100 100 100 93 23 29 92 88 22 32 5 6 0 0 5 5 0 3 1 0 0 0 1 0 5 5 3 5 5 5 5 5 5

GFSGL_prec_cloud_174.txt.gz
Cloud_Cover
0 0 0 0 0 0 0 0 1 23 13 3 2 0 14 90 0 5 26 0 0 2 0 0 0 0 9 97 32 96 93 60 46 0 1 0 0 0 0 0 0 0 0
0 0 0 6 21 23 23 0 2 92 71 8 1 67 0 0 2 5 5 2 0 4 0 0 0 0 0 38 12 5 2 0 1 0 0 0 0 0 4 3 0 0 0
0 0 3 6 89 100 100 100 100 40 89 92 51 0 10 2 0 0 5 76 5 3 0 0 0 0 0 0 0 0 0 0 4 0 0 0 2 5 3 0 0 0 0
0 0 1 25 75 100 100 57 75 82 55 2 1 3 99 5 1 0 0 65 100 12 0 0 0 0 6 5 1 0 13 27 6 20 10 10 2 1 0 0 0 5 5
0 0 36 0 62 88 89 60 25 70 5 5 90 97 100 0 0 0 0 100 100 1 0 0 0 0 45 90 62 70 36 62 86 22 55 70 45 11 1 1 5 5 65
0 0 0 0 60 30 5 5 5 4 100 100 100 100 64 0 0 0 17 100 100 0 0 0 0 8 14 88 2 10 40 78 100 100 87 100 29 100 4 63 95 79 100
0 0 4 75 29 100 8 60 77 98 99 100 100 100 1 0 0 8 100 100 100 2 0 0 12 34 49 0 1 0 14 45 100 100 100 100 100 100 100 100 100 100 100
48 54 39 13 51 38 6 88 88 96 100 100 43 100 14 2 41 100 100 36 4 0 0 4 26 16 1 0 1 5 27 40 100 29 100 100 100 100 100 100 100 100 100
91 10 75 36 78 5 81 74 100 8 4 0 5 5 0 2 100 61 1 0 0 0 18 56 92 7 2 3 2 5 21 33 100 100 100 100 100 100 100 100 100 100 100
5 85 99 66 7 9 100 100 50 5 5 5 5 2 21 100 82 0 0 5 0 0 98 99 90 0 7 98 60 9 100 100 100 100 100 100 100 100 100 100 100 100 100
8 5 5 16 5 100 97 82 5 5 5 5 0 40 100 72 0 0 0 1 0 1 85 88 31 0 2 43 100 100 100 100 100 97 100 100 100 100 100 100 100 100 100
5 5 5 5 3 68 83 16 5 4 5 5 44 100 48 0 0 0 0 0 0 5 100 3 4 0 0 44 37 32 88 97 92 94 100 100 100 100 100 100 100 100 100
4 0 0 0 1 13 29 2 2 9 21 2 5 3 3 4 0 0 0 1 4 5 86 4 0 0 0 2 4 2 97 94 100 100 100 100 100 100 100 100 100 100 100
0 0 0 0 23 5 1 1 4 5 5 5 5 100 75 1 4 0 0 6 88 28 99 5 4 0 0 0 0 3 5 11 99 100 100 100 100 100 100 100 100 100 100
0 0 0 0 5 1 0 5 5 5 5 8 100 33 5 5 5 11 26 52 19 79 100 31 3 0 0 0 1 1 4 92 94 100 100 100 100 100 100 100 100 100 100
0 0 1 18 2 12 82 74 59 80 68 100 35 0 0 18 13 91 95 96 89 34 100 5 5 0 0 0 2 5 5 42 100 100 100 100 100 100 100 100 100 100 100
0 4 0 2 20 100 100 100 100 60 96 100 65 6 5 94 100 100 100 100 100 100 100 5 5 5 0 0 55 5 97 70 85 100 100 100 100 100 100 100 100 100 100
16 23 5 5 83 100 37 5 92 100 100 100 38 5 93 99 95 100 100 100 100 100 94 5 5 6 5 0 0 0 0 6 96 80 95 100 100 100 100 100 93 100 100
99 100 32 90 100 100 74 100 100 98 100 90 100 92 100 100 100 100 100 100 100 99 30 3 5 10 4 0 0 0 0 6 5 78 89 99 96 95 63 100 100 100 100
74 98 91 100 100 100 100 100 97 90 69 82 100 100 100 100 100 100 100 100 99 88 4 10 56 100 5 0 0 0 0 0 0 8 5 13 49 39 56 26 100 100 100
70 100 100 100 100 100 100 100 100 100 100 100 100 100 100 100 100 100 100 100 100 63 5 53 7 100 5 0 0 0 0 0 0 0 5 5 5 5 12 21 5 100 100
48 100 100 100 88 78 93 100 100 100 100 100 100 100 100 96 98 100 95 69 77 34 84 65 100 96 2 0 0 0 0 0 0 0 0 0 4 0 0 2 5 8 98
10 20 34 26 14 32 97 100 100 96 95 100 100 100 100 98 100 100 100 100 100 100 100 100 97 5 4 0 0 0 0 0 0 0 0 0 0 3 0 0 4 5 39
14 6 64 98 96 100 100 100 99 80 94 100 100 90 81 95 100 100 100 100 100 100 100 100 17 5 0 0 0 0 0 0 0 0 0 0 0 5 0 0 0 5 5
5 19 58 75 100 100 94 80 100 94 86 100 100 100 100 100 100 100 100 100 99 100 100 98 5 5 0 0 0 0 0 0 0 0 0 0 0 0 0 0 0 5 2
14 44 59 83 67 98 76 82 78 100 100 100 100 100 100 100 100 100 100 100 100 100 78 5 4 0 0 0 0 0 0 0 0 0 0 0 0 0 0 0 0 4 4